sat.trackr.live / text

‹ back to catalog

STARLINK-37442

NORAD 68811 · 2026-089K

PAYLOAD ACTIVE UNKNOWN

§ Identity

Operator
Country
US
Launch date
2026-04-23
Launch site
AFWTR
Launch vehicle
Mass (kg)
RCS (m²)

Purposes: comms

External: N2YO · Heavens-Above · Gunter

§ Orbital elements

Epoch: 2026-05-25T02:42:40.385088Z

Period
91.41 min
Inclination
97.2845°
Eccentricity
0.0001433
Mean motion
15.75331640 rev/d
Perigee alt
342.7 km
Apogee alt
344.7 km
Semi-major
6,721.8 km
B*
1.8829e-3
RAAN
351.7644°
Arg perigee
58.7832°
Mean anomaly
301.3574°
Rev number
506

§ Raw data

STARLINK-374421 68811U 26089K   26145.11296742  .00292328  00000+0  18829-2 0  99942 68811  97.2845 351.7644 0001433  58.7832 301.3574 15.75331640  5064

JSON: /api/v1/satellites/68811 · /tle

For live sub-satellite position, see the globe view (requires WebGL).

§ Visibility from observer

Set your observer location to see the next 7 days of passes ≥ 10°. The values pass through the URL so the page stays shareable.

No JS? Fill the form by hand. The geolocation button needs JavaScript.